Terug naar catalogus

SL-12 R/B

AUX MOTOR

ActiefHEO
NORAD 19535·ROCKET BODY·🇷🇺 Russia

Gelanceerd Sep 16, 1988 vanaf Baikonur Cosmodrome

Loading…

Volgende Passages (komende 24 uur)

TLE

VersSource: Space-Track

Epoch: Sep 14, 2026, 08:55 UTC

1 19535U 88085F   26257.37210835  .00026535  00000-0  24921-2 0  9994
2 19535  64.7807 195.1548 5662620   6.5279 358.4702  4.59312715602853

Volg SL-12 R/B in realtime met AllMySat

Download on the App Store